Вернуться в каталог

MSG 4 DEB

BAFFLE COVER

LostGEO
NORAD 40990·DEBRIS·🇪🇺 EU

Запущен Jul 15, 2015 с Guiana Space Centre

Loading…

TLE

УстаревшееSource: Space-Track

Эпоха: Feb 26, 2026, 14:52 UTC

1 40990U 15034F   26057.62012871 -.00000188  00000-0  00000-0 0  9990
2 40990   6.7437  80.4620 0098763 192.6237 167.2594  1.02662052 39767

Отслеживайте MSG 4 DEB в реальном времени с AllMySat

Download on the App Store